Central Utah Canal




Date Battery Voltage (V) Stream Flow (cfs) Canal Flow (cfs) Canal Gate Height (ft) Stream Conductivity (ppm) Stream Water Temperature (degC) Stream Height (ft) Canal Height (ft)
11/01/2018 13.87 0 1 -0.90 -73.20 -6,999.00 0.31 0.07
11/02/2018 13.69 0 1 -0.90 -1.29 -6,999.00 0.31 0.07
11/03/2018 13.70 0 1 -0.90 -46.57 -6,999.00 0.31 0.07
11/04/2018 13.94 0 1 -0.89 -85.90 -6,999.00 0.32 0.07
11/05/2018 13.54 0 1 -0.90 -46.07 -6,999.00 0.32 0.07
11/06/2018 13.40 0 1 -0.89 -104.80 -6,999.00 0.32 0.07
11/07/2018 13.36 0 1 -0.89 -83.30 -6,999.00 0.32 0.07
11/08/2018 13.61 0 1 -0.89 -95.80 -6,999.00 0.32 0.07
11/09/2018 13.45 0 1 -0.89 -93.60 -6,999.00 0.32 0.07
11/10/2018 13.47 0 1 -0.89 -85.70 -6,999.00 0.32 0.07
11/11/2018 13.80 0 1 -0.89 -97.90 -6,999.00 0.32 0.07
11/12/2018 13.43 0 1 -0.89 -92.40 -6,999.00 0.32 0.07
11/13/2018 13.39 0 1 -0.89 -76.20 -6,999.00 0.34 0.07
11/14/2018 13.33 0 1 -0.89 -65.76 -6,999.00 0.33 0.07
11/15/2018 13.61 0 1 -0.89 -74.70 -6,999.00 0.32 0.07
11/16/2018 13.39 0 1 -0.89 -73.70 -6,999.00 0.33 0.07
11/17/2018 13.71 0 1 -0.89 -67.42 -6,999.00 0.33 0.07
11/18/2018 13.54 0 1 -0.89 -92.60 -6,999.00 0.33 0.07
11/19/2018 13.34 0 1 -0.89 -93.80 -6,999.00 0.33 0.07
11/20/2018 13.30 0 1 -0.89 -91.10 -6,999.00 0.33 0.07
11/21/2018 13.54 0 1 -0.89 -83.40 -6,999.00 0.34 0.07
11/22/2018 13.45 0 1 -0.89 -49.95 -6,999.00 0.35 0.07
11/23/2018 13.54 0 1 -0.90 -0.52 -6,999.00 0.34 0.06
11/24/2018 13.48 0 1 -0.90 -50.47 -6,999.00 0.34 0.07
11/25/2018 13.53 0 1 -0.89 -105.30 -6,999.00 0.33 0.07
11/26/2018 13.32 0 1 -0.89 -102.80 -6,999.00 0.34 0.06
11/27/2018 13.70 0 0 -0.89 -60.82 -6,999.00 0.34 0.05
11/28/2018 13.54 0 0 -0.89 -39.81 -6,999.00 0.34 0.05
11/29/2018 13.59 0 0 -0.89 -48.20 -6,999.00 0.35 0.05
11/30/2018 13.79 0 0 -0.89 -1.81 -6,999.00 0.37 0.06
Average 0 1
Maximum 0 1
Minimum 0 0
Total Volume (AF) 0 52